World > North America > United States > Ohio

Beaver Creek, Ohio Regional Weather

Lat: 39.77N, Lon: 84.12W
Wx Zone: OHZ061
Warning NWS WEATHER ALERT - (More Info. Click Here) Warning
Feedback

Beaver Creek, OH Regional Weather

Expires:201910141500;;697595
ASUS41 KCLE 141402
RWRCLE
OHIO REGIONAL WEATHER ROUNDUP
NATIONAL WEATHER SERVICE CLEVELAND, OH
1000 AM EDT MON OCT 14 2019

NOTE: "FAIR" INDICATES FEW OR NO CLOUDS BELOW 12,000 FEET WITH NO
SIGNIFICANT WEATHER AND/OR OBSTRUCTIONS TO VISIBILITY.


OHZ042-051>053-060>062-070>072-077>081-141500-
  SOUTHWEST OHIO
  
CITY           SKY/WX    TMP DP  RH WIND       PRES   REMARKS
CINC-COVINGTON FAIR      51  40  65 W5        30.10R                  
CINC-LUNKEN    FAIR      52  42  69 SW3       30.12R                  
HAMILTON       FAIR      50  41  71 CALM      30.11R                  
DAYTON         FAIR      52  35  52 W6        30.10R                  
WRIGHT-PAT AFB FAIR      50  40  68 S6        30.09R                  
DAYTON GENERAL FAIR      51  38  60 S3        30.09R                  
WILMINGTON     FAIR      51  40  65 W5        30.09R                  
$$


SKY/WX - Weather  TMP - Temperature  DP - Dew Point  RH - Relative Humidity
WIND - Wind Direction/Speed PRES - Barometric Pressure VSB - Visibility
WCI - Wind Chill Index E13G22 Wind - East Wind 13 mph/Gusts of 22 mph